Weather History for Moultrie, GA

Change the Weather History Date:

Tuesday, November 26, 2013

  Actual Average (KMUL) Record (KMUL)
Temperature  
Mean Temperature 62 °F -  
Max Temperature 71 °F 71 °F 87 °F (1967)
Min Temperature 53 °F 45 °F 23 °F (1950)
Degree Days  
Heating Degree Days 3    
Growing Degree Days 12 (Base 50)    
Moisture  
Dew Point 61 °F    
Average Humidity 98    
Maximum Humidity 100    
Minimum Humidity 94    
Precipitation  
Precipitation 0.00 in - - ()
Sea Level Pressure  
Sea Level Pressure 29.84 in    
Wind  
Wind Speed 7 mph (SSE)    
Max Wind Speed 16 mph    
Max Gust Speed 28 mph    
Visibility 8 miles    
Events Rain , Thunderstorm    
Averages and records for this station are not official NWS values.
T = Trace of Precipitation, MM = Missing Value Source: NWS Daily Summary

Daily Weather History Graph

Daily Weather History Graph

Search for Another Location

Airport:

Trip Planner

Search our weather history database for the weather conditions in past years. The results will help you decide how hot, cold, wet, or windy it might be!

Date:

Astronomy

Nov. 26, 2013 Rise Set
Actual Time 7:11 AM EST 5:33 PM EST
Civil Twilight 6:45 AM EST 5:59 PM EST
Nautical Twilight 6:16 AM EST 6:29 PM EST
Astronomical Twilight 5:46 AM EST 6:58 PM EST
Moon 12:39 AM EST (11/26) 1:16 PM EST (11/26)
Length of Visible Light 11h 13m
Length of Day
10h 21m
Last Quarter, 41% of the Moon is Illuminated
Nov 26
Last Quarter
Dec 2
New
Dec 9
First Quarter
Dec 17
Full
Dec 25
Last Quarter

Hourly Weather History & Observations

Time (EST) Temp. Dew Point Humidity Pressure Visibility Wind Dir Wind Speed Gust Speed Precip Events Conditions
12:15 AM 53.6 °F 51.8 °F 94% 30.13 in 10.0 mi East 5.8 mph - N/A   Overcast
12:35 AM 53.6 °F 51.8 °F 94% 30.11 in 10.0 mi East 5.8 mph - N/A   Overcast
12:55 AM 53.6 °F 51.8 °F 94% 30.11 in 10.0 mi ESE 5.8 mph - N/A   Overcast
1:15 AM 53.6 °F 51.8 °F 94% 30.10 in 10.0 mi East 6.9 mph - N/A   Overcast
1:35 AM 53.6 °F 51.8 °F 94% 30.09 in 10.0 mi East 5.8 mph - N/A   Overcast
1:55 AM 53.6 °F 51.8 °F 94% 30.08 in 10.0 mi ESE 5.8 mph - N/A   Overcast
2:15 AM 53.6 °F 51.8 °F 94% 30.07 in 10.0 mi ESE 5.8 mph - N/A   Overcast
2:35 AM 53.6 °F 51.8 °F 94% 30.07 in 10.0 mi East 4.6 mph - N/A   Mostly Cloudy
2:55 AM 53.6 °F 51.8 °F 94% 30.07 in 10.0 mi East 4.6 mph - N/A   Mostly Cloudy
3:15 AM 53.6 °F 51.8 °F 94% 30.06 in 10.0 mi East 3.5 mph - N/A   Overcast
3:35 AM 53.6 °F 51.8 °F 94% 30.04 in 10.0 mi East 5.8 mph - N/A Rain Light Rain
3:55 AM 53.6 °F 51.8 °F 94% 30.03 in 10.0 mi East 4.6 mph - N/A   Overcast
4:15 AM 53.6 °F 51.8 °F 94% 30.02 in 10.0 mi East 4.6 mph - N/A   Overcast
4:35 AM 53.6 °F 51.8 °F 94% 30.01 in 10.0 mi ESE 4.6 mph - N/A   Overcast
4:55 AM 53.6 °F 51.8 °F 94% 30.00 in 10.0 mi ESE 4.6 mph - N/A   Mostly Cloudy
5:15 AM 53.6 °F 53.6 °F 100% 30.00 in 7.0 mi ESE 4.6 mph - N/A   Drizzle
5:35 AM 53.6 °F 53.6 °F 100% 29.99 in 7.0 mi ESE 4.6 mph - N/A   Light Drizzle
5:55 AM 53.6 °F 53.6 °F 100% 29.99 in 7.0 mi ESE 3.5 mph - N/A Rain Rain
6:15 AM 53.6 °F 53.6 °F 100% 29.97 in 7.0 mi ESE 3.5 mph - N/A Rain Rain
6:35 AM 53.6 °F 53.6 °F 100% 29.96 in 7.0 mi ESE 5.8 mph - N/A Rain Rain
6:55 AM 55.4 °F 55.4 °F 100% 29.95 in 7.0 mi ESE 5.8 mph - N/A   Drizzle
7:15 AM 55.4 °F 55.4 °F 100% 29.94 in 7.0 mi ESE 4.6 mph - N/A Rain Light Rain
7:35 AM 55.4 °F 55.4 °F 100% 29.94 in 5.0 mi SE 6.9 mph - N/A Rain Rain
7:55 AM 57.2 °F 57.2 °F 100% 29.94 in 4.0 mi SE 5.8 mph - N/A Rain Light Rain
8:15 AM 59.0 °F 59.0 °F 100% 29.92 in 5.0 mi ESE 8.1 mph - N/A Rain Light Rain
8:35 AM 60.8 °F 60.8 °F 100% 29.91 in 5.0 mi ESE 5.8 mph - N/A Rain Rain
8:55 AM 60.8 °F 60.8 °F 100% 29.90 in 5.0 mi SE 5.8 mph - N/A Rain Rain
9:15 AM 60.8 °F 60.8 °F 100% 29.89 in 5.0 mi SE 9.2 mph - N/A Rain Rain
9:35 AM 62.6 °F 62.6 °F 100% 29.87 in 4.0 mi SE 13.8 mph 18.4 mph N/A Rain Rain
9:55 AM 62.6 °F 62.6 °F 100% 29.87 in 5.0 mi SE 12.7 mph 17.3 mph N/A Rain Rain
10:15 AM 62.6 °F 62.6 °F 100% 29.85 in 7.0 mi ESE 11.5 mph 18.4 mph N/A Rain Rain
10:35 AM 64.4 °F 64.4 °F 100% 29.85 in 4.0 mi SE 13.8 mph 21.9 mph N/A Rain Heavy Rain
10:55 AM 64.4 °F 64.4 °F 100% 29.83 in 7.0 mi SE 15.0 mph 23.0 mph N/A Rain Rain
11:15 AM 64.4 °F 64.4 °F 100% 29.81 in 4.0 mi SSE 16.1 mph 27.6 mph N/A Rain Heavy Rain
11:35 AM 64.4 °F 64.4 °F 100% 29.81 in 2.5 mi SSE 15.0 mph 21.9 mph N/A Rain Heavy Rain
11:55 AM 64.4 °F 64.4 °F 100% 29.77 in 3.0 mi SE 16.1 mph 21.9 mph N/A Rain Heavy Rain
12:15 PM 64.4 °F 64.4 °F 100% 29.77 in 2.0 mi SSE 15.0 mph 23.0 mph N/A Rain Heavy Rain
12:35 PM 64.4 °F 64.4 °F 100% 29.76 in 4.0 mi SE 11.5 mph 21.9 mph N/A Rain Heavy Rain
12:55 PM 66.2 °F 66.2 °F 100% 29.75 in 10.0 mi SE 8.1 mph - N/A Rain Rain
1:15 PM 68.0 °F 66.2 °F 94% 29.75 in 3.0 mi SSE 5.8 mph - N/A Rain Light Rain
1:35 PM 68.0 °F 68.0 °F 100% 29.74 in 10.0 mi SSW 6.9 mph - N/A Thunderstorm Mostly Cloudy
1:55 PM 68.0 °F 68.0 °F 100% 29.72 in 10.0 mi South 6.9 mph - N/A   Mostly Cloudy
2:15 PM 69.8 °F 69.8 °F 100% 29.72 in 10.0 mi South 8.1 mph - N/A   Overcast
2:35 PM 69.8 °F 69.8 °F 100% 29.70 in 7.0 mi South 11.5 mph 20.7 mph N/A Rain Rain
2:55 PM 69.8 °F 69.8 °F 100% 29.69 in 7.0 mi South 11.5 mph 18.4 mph N/A Rain , Thunderstorm Light Thunderstorms and Rain
3:15 PM 69.8 °F 69.8 °F 100% 29.69 in 10.0 mi South 10.4 mph - N/A Thunderstorm Mostly Cloudy
3:35 PM 71.6 °F 69.8 °F 94% 29.69 in 10.0 mi South 6.9 mph - N/A Thunderstorm Overcast
3:55 PM 71.6 °F 69.8 °F 94% 29.70 in 10.0 mi South 6.9 mph - N/A   Overcast
4:15 PM 71.6 °F 69.8 °F 94% 29.69 in 5.0 mi South 6.9 mph - N/A Rain Rain
4:35 PM 71.6 °F 69.8 °F 94% 29.69 in 5.0 mi SSW 11.5 mph 17.3 mph N/A Rain Rain
4:55 PM 69.8 °F 68.0 °F 94% 29.69 in 10.0 mi SSW 15.0 mph 24.2 mph N/A Rain , Thunderstorm Light Thunderstorms and Rain
5:15 PM 69.8 °F 68.0 °F 94% 29.70 in 10.0 mi SSW 9.2 mph - N/A Rain Light Rain
5:35 PM 69.8 °F 68.0 °F 94% 29.70 in 7.0 mi SSW 5.8 mph - N/A Rain Rain
5:55 PM 69.8 °F 68.0 °F 94% 29.69 in 7.0 mi South 6.9 mph - N/A Rain Light Rain
6:15 PM 68.0 °F 68.0 °F 100% 29.68 in 10.0 mi SSE 8.1 mph - N/A Rain Light Rain
6:35 PM 69.8 °F 68.0 °F 94% 29.69 in 10.0 mi South 9.2 mph 17.3 mph N/A   Overcast
6:55 PM 69.8 °F 69.8 °F 100% 29.70 in 10.0 mi South 9.2 mph - N/A   Overcast
7:15 PM 69.8 °F 69.8 °F 100% 29.69 in 10.0 mi South 9.2 mph - N/A   Overcast
7:35 PM 69.8 °F 68.0 °F 94% 29.68 in 10.0 mi South 8.1 mph - N/A   Overcast
7:55 PM 69.8 °F 68.0 °F 94% 29.68 in 10.0 mi SSW 11.5 mph 19.6 mph N/A   Mostly Cloudy
8:15 PM 69.8 °F 68.0 °F 94% 29.68 in 10.0 mi SSW 9.2 mph - N/A   Overcast
8:35 PM 69.8 °F 68.0 °F 94% 29.68 in 10.0 mi SSW 8.1 mph - N/A   Overcast
8:55 PM 69.8 °F 68.0 °F 94% 29.68 in 7.0 mi SSW 9.2 mph - N/A   Overcast
9:15 PM 68.0 °F 68.0 °F 100% 29.69 in 4.0 mi SSW 6.9 mph - N/A Rain Light Rain
9:35 PM 68.0 °F 68.0 °F 100% 29.69 in 7.0 mi SSW 8.1 mph - N/A Rain Light Rain
9:55 PM 68.0 °F 68.0 °F 100% 29.68 in 10.0 mi SW 8.1 mph - N/A   Overcast
10:15 PM 62.6 °F 62.6 °F 100% 29.70 in 10.0 mi WNW 12.7 mph - N/A   Overcast
10:35 PM 60.8 °F 60.8 °F 100% 29.70 in 10.0 mi WNW 6.9 mph - N/A   Overcast
10:55 PM 59.0 °F 59.0 °F 100% 29.68 in 10.0 mi NNW 4.6 mph - N/A   Overcast
11:15 PM 57.2 °F 57.2 °F 100% 29.69 in 10.0 mi West 4.6 mph - N/A Rain Light Rain
11:35 PM 57.2 °F 57.2 °F 100% 29.68 in 10.0 mi NW 5.8 mph - N/A   Overcast
11:55 PM 55.4 °F 55.4 °F 100% 29.69 in 7.0 mi West 5.8 mph - N/A   Overcast